Weather in Kirpichny

Russia / Khanty-Mansi Autonomous Okrug — Yugra     61°04′49″N   68°40′04″E
temp.,
°C
wind,
m/s
gust,
m/s
humid.,
%
clouds,
%
prec.,
mm/h
press.,
hPa
HPBL,
m
20 june, sun
sun2023:00+12sw4667100 0.0 1002101
02:00+11ssw4991100 0.9 999296
05:00+12sw71397100 6.4 994733
08:00+7nw10148140 2.8 995863
11:00+6wnw91182100 2.9 9961055
14:00+8nw6982100 0.0 997794
17:00+10nnw3885100 0.1 998841
20:00+11n91489100 0.1 1002953
21 june, mon
mon2123:00+11nne101592100 0.9 1007820
02:00+11nne91492100 0.6 1011648
05:00+10nne81390100 0.6 1014522
08:00+10n61189100 0.1 1017464
11:00+10n61086100 0.1 1019370
14:00+12nnw347458 0.0 1019472
17:00+15nnw555362 0.2 10181544
20:00+13n346168 0.1 1018216
22 june, tue
tue2223:00+8ne227397 0.1 101811
02:00+10sw0069100 0.0 101710
05:00+11nw1166100 0.0 101722
08:00+13nne1155100 0.0 1018374
11:00+14nne335368 0.4 10171307
14:00+15ne5639100 0.1 10181859
17:00+15nne5643100 0.1 10181586
20:00+14nne465126 0.0 1019260
23 june, wed
wed2323:00+9nne33665 0.0 101921
02:00+8n3369100 0.0 102032
05:00+9n366775 0.0 1020142
08:00+14n564870 0.0 10201024
11:00+15nne5642100 0.0 10201821
14:00+16nnw4636100 0.0 10192228
17:00+17n453689 0.0 10202115
20:00+16nne225078 0.0 102032
24 june, thu
thu2423:00+10nw22615 0.0 102011
02:00+9nw22615 0.0 101911
05:00+11nw226458 0.0 102049
08:00+16nnw34485 0.0 1020532
11:00+20n35345 0.0 10191921
14:00+21nne453299 0.0 10182121
17:00+22ne4532100 0.0 10172103
20:00+19ne35495 0.0 101791